Theta_e
272 271 271 271 271 271 271 272 272 273 273 272 272 272 272 272 272 272 272 272 273 276 282 286 291 292 292 294 294 296 295 292 306 293 300 313 313 313 311 316 310 314 311
271 270 270 269 269 269 270 271 272 271 272 271 271 271 271 271 271 271 271 272 273 276 280 281 291 292 290 293 294 294 294 294 306 299 305 308 311 312 312 312 311 313 313
269 268 268 268 268 269 269 270 270 270 270 270 270 269 269 270 270 271 271 271 272 276 279 282 286 291 289 290 292 295 292 301 310 304 305 309 310 310 310 310 309 311 311
268 267 267 267 268 268 268 269 269 269 268 268 268 269 269 269 270 270 271 271 272 275 278 280 283 290 290 288 290 291 293 302 306 304 304 307 307 308 309 306 305 308 300
266 266 266 267 267 267 267 267 267 267 267 267 267 268 268 268 270 269 270 270 271 275 277 280 283 285 290 290 287 287 291 292 303 304 302 303 304 305 304 305 304 306 301
265 266 266 266 266 266 266 265 265 265 265 265 266 266 267 268 272 274 274 273 274 274 277 279 282 284 289 290 290 291 293 291 300 302 302 301 300 302 304 305 304 301 297
265 264 264 264 263 263 264 263 263 263 263 264 266 267 267 268 272 274 275 274 274 275 276 279 281 284 286 288 288 290 291 294 304 303 298 302 298 303 303 302 301 301 301
264 263 263 262 261 261 261 261 261 263 263 264 265 266 267 269 274 275 276 274 275 275 276 278 280 282 285 287 285 285 287 299 303 305 303 303 303 305 305 304 299 295 294
262 262 261 261 259 259 258 259 262 262 262 262 265 265 265 266 273 276 277 274 274 274 277 279 281 281 284 286 285 285 286 295 301 301 303 303 302 303 304 300 295 294 290
260 260 260 259 257 257 258 260 261 260 262 264 263 265 267 267 272 277 279 275 272 274 275 278 282 282 285 287 285 285 285 291 298 291 299 300 301 301 300 301 299 296 295
259 259 258 258 256 257 260 260 260 260 262 261 262 264 266 270 270 275 279 277 275 274 275 277 281 284 285 287 290 286 286 291 297 294 297 297 298 299 301 301 301 301 297
258 256 255 254 257 259 258 259 259 260 259 260 261 264 267 268 270 274 276 277 280 277 277 279 282 286 289 291 290 291 291 291 296 296 295 295 296 297 299 300 301 303 304
253 251 252 256 257 258 258 258 259 260 260 261 263 263 263 266 269 271 272 274 278 277 280 282 284 287 290 290 291 291 289 291 296 294 294 295 297 299 299 295 296 292 290
248 252 256 256 256 258 259 259 259 260 261 263 262 262 262 266 266 267 270 272 275 275 275 276 285 288 289 289 287 289 291 295 297 295 295 296 297 296 295 295 294 293 292
252 255 255 256 256 257 259 258 260 262 265 263 263 263 264 262 266 272 272 271 272 273 274 275 278 284 285 286 287 289 293 296 296 296 296 294 293 294 294 295 295 293 293
251 254 254 255 255 257 257 257 263 265 266 267 268 268 265 268 271 271 272 272 274 277 277 274 279 285 285 286 286 288 293 294 296 296 295 293 293 292 293 293 293 292 293
245 251 253 254 254 254 255 255 254 258 263 264 266 268 268 268 269 269 269 269 270 270 269 267 273 282 287 288 289 292 293 295 296 295 294 293 292 292 291 291 291 291 292
243 251 251 251 252 253 254 254 255 254 254 255 260 264 267 266 267 267 266 263 259 261 262 263 265 267 269 272 290 293 294 295 295 295 293 292 292 291 291 291 291 291 291
248 248 249 250 251 252 253 253 254 254 254 254 255 257 262 263 264 264 263 257 257 257 260 261 263 265 266 267 269 289 293 292 293 293 291 291 291 291 290 291 291 291 291
245 251 250 247 249 250 251 251 252 253 253 253 254 253 260 256 255 255 256 256 257 258 259 261 262 264 266 266 266 270 289 290 291 291 290 290 290 291 291 290 290 289 290
244 245 249 246 246 249 249 250 251 252 252 253 253 255 264 254 254 254 255 256 257 258 259 262 263 263 266 266 265 267 270 288 291 291 290 290 290 289 291 291 290 290 290
243 243 243 242 248 249 248 250 250 251 251 252 253 254 260 254 254 254 255 256 257 259 260 262 263 264 265 266 265 265 266 268 271 280 290 290 290 290 290 290 289 289 289
247 246 246 245 246 248 248 248 249 250 250 251 252 252 253 253 253 254 254 255 257 259 260 261 264 264 265 267 267 265 265 265 267 271 279 288 289 289 290 289 289 289 288
245 245 246 244 243 245 245 246 248 250 250 250 250 251 252 252 253 253 254 255 257 259 260 261 263 264 265 265 268 267 266 266 268 269 274 280 286 286 288 288 289 289 289
240 243 243 242 238 242 243 244 247 246 248 250 249 250 251 252 252 253 253 255 256 258 259 261 262 265 265 265 266 268 268 265 266 268 269 270 271 273 277 283 285 285 286
243 244 241 242 242 241 240 243 243 245 247 248 249 249 250 251 252 252 253 254 255 257 258 260 261 262 266 266 266 267 270 269 265 265 266 267 267 267 270 271 273 275 278
Wind_Speed
7 9 9 9 10 11 12 14 15 16 17 18 18 20 19 18 17 16 17 19 19 18 17 20 13 14 10 9 10 14 9 15 19 1 4 14 16 19 16 18 18 19 14
8 9 10 10 11 11 12 14 15 17 17 19 19 19 19 19 17 18 19 16 17 17 18 18 16 10 13 12 14 13 14 19 20 17 14 13 18 19 18 20 16 15 17
9 9 11 11 11 12 14 15 16 17 18 19 19 20 19 19 18 17 18 19 17 18 17 19 18 12 11 10 13 12 12 23 17 15 14 17 14 17 18 17 18 17 13
9 10 11 12 13 14 15 16 16 17 19 19 18 19 19 19 19 18 18 18 18 17 16 17 19 16 13 11 12 13 20 14 16 18 16 19 17 20 15 17 15 13 10
9 9 10 13 14 15 16 17 17 18 18 19 19 18 18 17 14 17 17 18 18 17 16 17 17 20 18 14 8 10 13 19 17 19 17 16 17 18 19 16 19 16 10
8 10 13 13 14 15 16 17 18 18 18 18 18 19 19 14 25 27 23 16 18 18 16 16 17 20 19 21 22 26 24 17 22 16 16 18 21 17 16 20 18 17 13
10 10 11 13 14 15 17 17 17 18 18 19 18 18 19 18 28 28 28 15 16 17 18 15 14 13 16 12 16 24 19 34 31 24 24 22 19 22 21 22 21 21 18
8 9 11 14 14 15 16 17 18 16 18 18 18 19 19 17 28 28 28 17 15 17 18 19 17 17 15 12 9 13 15 16 21 18 23 22 20 23 24 23 20 11 10
9 12 13 14 15 16 16 18 17 17 18 18 17 18 19 20 30 30 24 14 14 17 17 18 17 18 25 25 14 12 13 16 19 22 28 33 34 34 26 16 16 17 9
12 14 13 13 13 15 17 17 16 16 18 16 19 17 19 20 28 29 21 8 12 12 15 17 23 17 25 24 16 12 12 15 17 7 15 19 30 29 35 27 21 21 15
11 12 13 13 13 14 15 15 15 16 16 17 17 17 18 16 18 30 26 11 11 11 12 12 11 25 29 28 27 13 13 15 18 13 13 12 15 19 18 19 26 24 19
11 12 12 12 11 11 14 13 14 14 15 16 17 15 12 16 22 23 30 28 27 11 12 12 12 24 22 23 21 20 23 20 13 14 15 13 16 16 18 18 21 21 23
10 10 10 11 10 12 13 14 12 13 13 14 13 14 14 14 12 29 30 28 26 15 9 20 28 24 19 16 20 23 19 10 14 15 15 16 16 16 16 10 12 5 7
8 10 9 10 11 11 9 10 11 12 14 13 14 14 15 13 14 13 13 13 16 15 18 14 14 17 18 12 10 13 10 12 13 16 15 14 13 14 14 13 13 10 11
7 8 8 8 9 11 11 10 11 11 17 15 13 14 15 15 15 27 23 15 14 17 19 12 11 9 11 8 9 9 10 12 13 14 13 14 12 14 14 14 14 11 13
7 7 6 7 8 9 9 11 17 22 26 26 29 24 14 26 31 31 32 30 27 26 12 8 9 7 8 8 8 9 12 13 13 13 14 15 14 15 13 12 11 14 15
3 6 6 8 8 9 10 10 13 15 23 25 29 33 33 31 30 32 31 23 23 20 10 9 9 8 7 7 7 10 12 13 13 13 14 15 15 14 17 14 14 14 13
3 6 5 6 7 8 8 9 9 12 15 17 23 31 34 34 32 33 33 21 15 17 12 10 10 10 11 10 8 10 12 12 14 14 13 14 15 16 15 16 16 17 15
3 3 4 5 6 8 7 8 8 9 11 12 14 21 24 35 32 32 32 14 13 12 12 11 11 10 11 10 10 7 10 10 12 13 12 14 15 14 16 15 16 21 18
3 6 5 3 6 6 7 8 9 10 11 11 12 14 17 18 18 18 17 15 14 13 12 13 13 12 11 11 11 11 5 9 10 11 12 14 14 14 15 15 14 16 16
2 3 5 3 3 5 6 7 8 9 10 10 11 14 32 13 14 14 14 15 15 15 15 13 13 13 12 12 11 11 10 4 10 10 11 13 13 14 14 14 14 15 15
2 2 3 2 4 5 6 6 6 8 9 10 11 13 29 13 13 14 14 14 14 13 13 13 13 14 13 13 13 12 11 10 8 6 8 13 13 14 13 14 15 13 14
1 2 2 2 3 5 5 6 6 7 8 9 10 11 12 12 13 14 14 14 13 13 14 13 15 15 15 13 13 12 12 10 9 8 5 7 10 12 12 13 14 14 14
2 2 3 2 3 4 4 5 6 7 7 8 9 10 11 11 12 14 14 14 13 13 13 14 15 20 19 18 15 14 13 13 9 9 10 6 4 4 6 8 11 15 14
2 3 3 2 2 3 4 4 6 5 6 7 7 8 10 10 11 12 12 13 13 14 16 15 14 21 24 29 28 28 27 26 22 17 11 12 13 12 7 4 6 7 8
2 2 1 1 2 2 2 4 4 5 6 7 7 7 8 9 10 10 11 13 13 13 16 13 18 24 26 25 29 31 30 30 24 25 14 13 13 12 10 11 12 8 7
Wind_Direction
312 302 294 296 299 296 289 292 292 291 291 291 292 289 285 282 279 274 277 277 274 275 275 283 242 246 248 244 243 243 274 250 229 152 125 166 161 156 170 154 150 160 160
297 296 300 303 297 293 292 292 293 292 292 292 291 287 285 280 276 272 272 272 276 270 278 288 250 244 243 259 233 237 245 252 241 160 160 153 165 165 168 150 156 160 170
303 304 300 298 302 301 301 299 300 297 294 293 290 287 285 280 275 270 270 270 267 267 268 273 280 233 238 247 266 251 256 258 188 164 170 157 164 164 165 159 161 160 165
302 296 304 309 314 311 306 304 302 300 295 292 288 286 282 279 274 270 267 268 264 259 262 268 276 266 238 246 255 252 246 264 170 168 166 164 166 167 161 156 156 158 149
291 305 315 320 317 310 310 307 303 299 295 293 291 287 283 277 271 264 259 261 264 265 257 260 265 277 236 236 250 272 254 281 169 168 162 165 167 169 163 163 159 161 160
312 325 325 319 315 312 310 309 306 302 300 296 290 286 281 273 276 274 272 262 263 261 261 256 261 265 268 250 262 267 266 290 171 165 168 173 159 163 162 162 161 162 166
331 323 316 318 313 316 313 309 308 306 302 296 294 292 289 280 279 278 273 264 259 260 259 259 257 257 267 253 264 283 277 281 167 165 166 173 160 168 160 167 165 166 169
326 319 324 321 318 318 312 310 308 305 306 305 300 295 288 287 289 285 276 263 254 253 259 255 253 259 258 258 270 290 290 235 168 166 168 165 170 164 170 170 160 137 100
333 333 327 322 320 316 310 310 310 311 308 303 302 302 297 290 292 292 279 262 257 261 253 252 249 250 253 262 268 273 280 257 182 166 173 165 170 166 165 142 153 150 151
340 327 321 318 311 308 306 309 314 306 306 310 305 300 296 295 296 302 300 245 254 257 258 258 255 255 263 251 253 255 263 267 170 132 171 170 165 162 165 163 160 166 155
330 322 319 313 307 298 307 311 311 311 311 307 306 306 300 305 311 306 317 316 241 244 253 251 248 250 248 245 240 240 245 279 174 157 158 151 165 162 172 175 172 170 172
334 320 313 306 304 311 311 313 315 314 313 313 312 311 319 312 308 316 324 321 324 233 247 256 256 258 249 233 234 243 248 255 187 160 156 159 168 172 175 177 183 181 182
326 303 298 307 315 315 320 322 322 322 323 318 324 322 320 313 319 322 314 314 317 321 299 254 257 259 252 241 246 251 252 242 186 160 166 169 175 169 166 155 173 133 110
299 304 322 324 327 323 323 326 323 327 326 332 328 327 313 326 319 310 299 302 314 315 313 312 263 248 238 233 243 254 240 216 184 167 170 161 159 165 169 164 166 162 150
314 323 331 326 335 322 329 327 331 332 337 336 334 319 331 325 315 320 319 311 305 295 294 290 295 236 241 234 236 236 236 202 184 170 163 161 161 166 171 172 167 166 172
329 334 335 332 335 324 326 326 337 345 345 344 348 339 345 330 334 333 328 318 300 297 271 253 269 255 232 226 214 241 201 190 180 171 160 162 164 170 167 170 164 174 178
301 317 335 342 334 327 330 334 335 339 347 347 351 346 360 351 353 351 351 350 358 4 33 11 342 320 256 232 231 233 194 188 171 173 166 168 165 169 163 170 170 175 184
305 324 335 333 324 321 327 331 335 342 342 340 347 348 5 1 5 7 11 10 13 13 16 7 354 343 325 329 253 217 191 184 177 173 168 168 169 169 175 177 175 176 176
345 344 352 329 311 314 321 330 338 344 345 340 338 345 3 358 4 9 15 21 12 6 358 3 353 347 329 330 326 266 184 178 176 171 167 171 171 172 180 181 179 180 176
355 350 357 330 319 328 337 341 344 350 351 349 350 343 359 352 2 360 5 5 5 2 355 2 356 349 340 349 335 329 230 172 176 168 167 173 173 176 179 178 182 181 186
7 349 352 339 324 330 336 344 343 348 350 350 348 344 7 1 354 356 358 359 358 357 355 358 358 355 349 359 354 346 343 247 178 175 173 174 177 179 180 181 181 187 190
34 344 346 357 338 347 340 338 346 353 349 351 346 348 359 1 358 355 356 357 353 354 354 353 3 2 353 8 2 356 355 358 355 347 184 180 180 182 180 179 181 186 187
50 21 10 339 347 340 347 337 353 357 352 349 349 349 354 356 353 351 352 349 353 354 357 358 10 6 9 10 15 9 2 351 335 335 295 178 186 184 181 183 182 185 186
83 55 49 356 3 7 342 341 343 353 354 355 352 350 351 349 350 349 349 346 348 354 356 3 2 14 14 16 14 20 16 5 1 360 6 43 73 127 171 177 187 190 190
82 69 60 354 23 23 344 330 347 338 349 353 354 351 345 347 348 348 347 346 348 349 358 1 2 10 18 20 19 20 22 22 25 21 23 40 54 50 47 90 145 151 159
111 93 55 9 356 16 15 340 331 335 342 348 348 346 344 342 344 343 344 346 346 346 349 356 359 3 20 22 19 20 23 29 28 27 31 38 47 43 45 52 56 64 78